Regional Weather Roundup
Issued by NWS Goodland, KS

Home | Current Version | Previous Version | Graphics & Text | Print | Product List | Glossary On
Versions: 1 2 3 4 5 6 7 8 9 10 11 12 13 14 15 16 17 18 19 20 21 22 23 24 25 26 27 28 29 30 31 32 33 34 35 36 37 38 39 40 41 42 43 44 45 46 47 48 49 50
000
ASUS43 KGLD 070308
RWRGLD

GOODLAND FORECAST AREA HOURLY WEATHER ROUNDUP
NATIONAL WEATHER SERVICE GOODLAND KS
800 PM MST SAT FEB 06 2016

...OFFICIAL OBSERVATIONS...

CITY           SKY/WX    TMP DP  RH WIND       PRES   REMARKS
GOODLAND KS    CLEAR     35  22  58 W16       30.05F
HILL CITY KS   CLOUDY    39  27  62 W13       30.04S
IMPERIAL NEB   CLOUDY    33  24  69 W12       30.02R
MCCOOK NEB     CLOUDY    33  24  69 W6        30.02R
AKRON CO       CLOUDY    35  25  66 W16       30.04F
BURLINGTON CO  CLOUDY    31  19  61 W16       30.07S WCI  20
LIMON CO       CLOUDY    17  12  80 NW6       30.13R
$$

...UNOFFICIAL OBSERVATIONS...

CITY           SKY/WX    TMP DP  RH WIND       PRES   REMARKS
COLBY KS       CLEAR     34  28  80 SW14      30.04S
GOVE KS          N/A     37  32  82 MISG        N/A
LENORA KS        N/A     39  32  76 MISG        N/A
NORTON KS      CLEAR     34  25  69 SW8       30.00F
SHARON SPRINGS   N/A     31  26  80 SW12        N/A
TRENTON NEB      N/A     35  32  89 MISG        N/A
KIT CARSON CO    N/A     27  19  72 MISG        N/A
YUMA CO          N/A     35  26  70 W13         N/A
$$



USA.gov is the U.S. government's official web portal to all federal, state and local government web resources and services.